Index of /20260430/WXO-DD/model_gdps/15km/00/087
Name Last modified Size Description
Parent Directory -
20260430T00Z_MSC_GDPS_AbsoluteVorticity_IsbL-0200_LatLon0.15_PT087H.grib2 2026-04-30 04:29 1.5M
20260430T00Z_MSC_GDPS_AbsoluteVorticity_IsbL-0250_LatLon0.15_PT087H.grib2 2026-04-30 04:29 1.3M
20260430T00Z_MSC_GDPS_AbsoluteVorticity_IsbL-0500_LatLon0.15_PT087H.grib2 2026-04-30 04:29 1.2M
20260430T00Z_MSC_GDPS_AbsoluteVorticity_IsbL-0700_LatLon0.15_PT087H.grib2 2026-04-30 04:29 1.6M
20260430T00Z_MSC_GDPS_AbsoluteVorticity_IsbL-0850_LatLon0.15_PT087H.grib2 2026-04-30 04:29 1.6M
20260430T00Z_MSC_GDPS_AirTemp_AGL-120m_LatLon0.15_PT087H.grib2 2026-04-30 04:29 907K
20260430T00Z_MSC_GDPS_AirTemp_AGL-2m_LatLon0.15_PT087H.grib2 2026-04-30 04:29 1.0M
20260430T00Z_MSC_GDPS_AirTemp_AGL-40m_LatLon0.15_PT087H.grib2 2026-04-30 04:29 810K
20260430T00Z_MSC_GDPS_AirTemp_AGL-80m_LatLon0.15_PT087H.grib2 2026-04-30 04:29 799K
20260430T00Z_MSC_GDPS_AirTemp_IsbL-0001_LatLon0.15_PT087H.grib2 2026-04-30 04:29 657K
20260430T00Z_MSC_GDPS_AirTemp_IsbL-0005_LatLon0.15_PT087H.grib2 2026-04-30 04:29 686K
20260430T00Z_MSC_GDPS_AirTemp_IsbL-0010_LatLon0.15_PT087H.grib2 2026-04-30 04:29 692K
20260430T00Z_MSC_GDPS_AirTemp_IsbL-0020_LatLon0.15_PT087H.grib2 2026-04-30 04:29 789K
20260430T00Z_MSC_GDPS_AirTemp_IsbL-0030_LatLon0.15_PT087H.grib2 2026-04-30 04:29 839K
20260430T00Z_MSC_GDPS_AirTemp_IsbL-0050_LatLon0.15_PT087H.grib2 2026-04-30 04:29 814K
20260430T00Z_MSC_GDPS_AirTemp_IsbL-0100_LatLon0.15_PT087H.grib2 2026-04-30 04:29 970K
20260430T00Z_MSC_GDPS_AirTemp_IsbL-0150_LatLon0.15_PT087H.grib2 2026-04-30 04:29 1.0M
20260430T00Z_MSC_GDPS_AirTemp_IsbL-0175_LatLon0.15_PT087H.grib2 2026-04-30 04:29 964K
20260430T00Z_MSC_GDPS_AirTemp_IsbL-0200_LatLon0.15_PT087H.grib2 2026-04-30 04:29 1.0M
20260430T00Z_MSC_GDPS_AirTemp_IsbL-0225_LatLon0.15_PT087H.grib2 2026-04-30 04:29 1.0M
20260430T00Z_MSC_GDPS_AirTemp_IsbL-0250_LatLon0.15_PT087H.grib2 2026-04-30 04:29 1.0M
20260430T00Z_MSC_GDPS_AirTemp_IsbL-0275_LatLon0.15_PT087H.grib2 2026-04-30 04:29 1.0M
20260430T00Z_MSC_GDPS_AirTemp_IsbL-0300_LatLon0.15_PT087H.grib2 2026-04-30 04:29 1.0M
20260430T00Z_MSC_GDPS_AirTemp_IsbL-0350_LatLon0.15_PT087H.grib2 2026-04-30 04:29 930K
20260430T00Z_MSC_GDPS_AirTemp_IsbL-0400_LatLon0.15_PT087H.grib2 2026-04-30 04:29 944K
20260430T00Z_MSC_GDPS_AirTemp_IsbL-0450_LatLon0.15_PT087H.grib2 2026-04-30 04:29 967K
20260430T00Z_MSC_GDPS_AirTemp_IsbL-0500_LatLon0.15_PT087H.grib2 2026-04-30 04:29 1.0M
20260430T00Z_MSC_GDPS_AirTemp_IsbL-0550_LatLon0.15_PT087H.grib2 2026-04-30 04:29 1.0M
20260430T00Z_MSC_GDPS_AirTemp_IsbL-0600_LatLon0.15_PT087H.grib2 2026-04-30 04:29 900K
20260430T00Z_MSC_GDPS_AirTemp_IsbL-0650_LatLon0.15_PT087H.grib2 2026-04-30 04:29 924K
20260430T00Z_MSC_GDPS_AirTemp_IsbL-0700_LatLon0.15_PT087H.grib2 2026-04-30 04:29 960K
20260430T00Z_MSC_GDPS_AirTemp_IsbL-0750_LatLon0.15_PT087H.grib2 2026-04-30 04:29 1.0M
20260430T00Z_MSC_GDPS_AirTemp_IsbL-0800_LatLon0.15_PT087H.grib2 2026-04-30 04:29 1.1M
20260430T00Z_MSC_GDPS_AirTemp_IsbL-0850_LatLon0.15_PT087H.grib2 2026-04-30 04:29 1.1M
20260430T00Z_MSC_GDPS_AirTemp_IsbL-0875_LatLon0.15_PT087H.grib2 2026-04-30 04:29 1.2M
20260430T00Z_MSC_GDPS_AirTemp_IsbL-0900_LatLon0.15_PT087H.grib2 2026-04-30 04:29 1.1M
20260430T00Z_MSC_GDPS_AirTemp_IsbL-0925_LatLon0.15_PT087H.grib2 2026-04-30 04:29 1.1M
20260430T00Z_MSC_GDPS_AirTemp_IsbL-0950_LatLon0.15_PT087H.grib2 2026-04-30 04:29 1.1M
20260430T00Z_MSC_GDPS_AirTemp_IsbL-0970_LatLon0.15_PT087H.grib2 2026-04-30 04:29 1.1M
20260430T00Z_MSC_GDPS_AirTemp_IsbL-0985_LatLon0.15_PT087H.grib2 2026-04-30 04:29 1.1M
20260430T00Z_MSC_GDPS_AirTemp_IsbL-1000_LatLon0.15_PT087H.grib2 2026-04-30 04:29 1.1M
20260430T00Z_MSC_GDPS_AirTemp_IsbL-1015_LatLon0.15_PT087H.grib2 2026-04-30 04:29 1.1M
20260430T00Z_MSC_GDPS_Albedo_Sfc_LatLon0.15_PT087H.grib2 2026-04-30 04:29 242K
20260430T00Z_MSC_GDPS_CAPE_Sfc_LatLon0.15_PT087H.grib2 2026-04-30 04:29 4.0M
20260430T00Z_MSC_GDPS_CIN_Sfc_LatLon0.15_PT087H.grib2 2026-04-30 04:29 2.9M
20260430T00Z_MSC_GDPS_CloudWater_EAtm_LatLon0.15_PT087H.grib2 2026-04-30 04:29 535K
20260430T00Z_MSC_GDPS_ConvectivePrecip-Accum_Sfc_LatLon0.15_PT087H.grib2 2026-04-30 04:29 3.2M
20260430T00Z_MSC_GDPS_DewPointDepression_AGL-2m_LatLon0.15_PT087H.grib2 2026-04-30 04:29 764K
20260430T00Z_MSC_GDPS_DewPointDepression_IsbL-0010_LatLon0.15_PT087H.grib2 2026-04-30 04:29 66K
20260430T00Z_MSC_GDPS_DewPointDepression_IsbL-0020_LatLon0.15_PT087H.grib2 2026-04-30 04:29 68K
20260430T00Z_MSC_GDPS_DewPointDepression_IsbL-0030_LatLon0.15_PT087H.grib2 2026-04-30 04:29 86K
20260430T00Z_MSC_GDPS_DewPointDepression_IsbL-0050_LatLon0.15_PT087H.grib2 2026-04-30 04:29 377K
20260430T00Z_MSC_GDPS_DewPointDepression_IsbL-0100_LatLon0.15_PT087H.grib2 2026-04-30 04:29 405K
20260430T00Z_MSC_GDPS_DewPointDepression_IsbL-0150_LatLon0.15_PT087H.grib2 2026-04-30 04:29 470K
20260430T00Z_MSC_GDPS_DewPointDepression_IsbL-0175_LatLon0.15_PT087H.grib2 2026-04-30 04:29 583K
20260430T00Z_MSC_GDPS_DewPointDepression_IsbL-0200_LatLon0.15_PT087H.grib2 2026-04-30 04:29 686K
20260430T00Z_MSC_GDPS_DewPointDepression_IsbL-0225_LatLon0.15_PT087H.grib2 2026-04-30 04:29 779K
20260430T00Z_MSC_GDPS_DewPointDepression_IsbL-0250_LatLon0.15_PT087H.grib2 2026-04-30 04:29 863K
20260430T00Z_MSC_GDPS_DewPointDepression_IsbL-0275_LatLon0.15_PT087H.grib2 2026-04-30 04:29 877K
20260430T00Z_MSC_GDPS_DewPointDepression_IsbL-0300_LatLon0.15_PT087H.grib2 2026-04-30 04:29 915K
20260430T00Z_MSC_GDPS_DewPointDepression_IsbL-0350_LatLon0.15_PT087H.grib2 2026-04-30 04:29 951K
20260430T00Z_MSC_GDPS_DewPointDepression_IsbL-0400_LatLon0.15_PT087H.grib2 2026-04-30 04:29 1.0M
20260430T00Z_MSC_GDPS_DewPointDepression_IsbL-0450_LatLon0.15_PT087H.grib2 2026-04-30 04:29 1.0M
20260430T00Z_MSC_GDPS_DewPointDepression_IsbL-0500_LatLon0.15_PT087H.grib2 2026-04-30 04:29 1.0M
20260430T00Z_MSC_GDPS_DewPointDepression_IsbL-0550_LatLon0.15_PT087H.grib2 2026-04-30 04:29 1.0M
20260430T00Z_MSC_GDPS_DewPointDepression_IsbL-0600_LatLon0.15_PT087H.grib2 2026-04-30 04:29 1.1M
20260430T00Z_MSC_GDPS_DewPointDepression_IsbL-0650_LatLon0.15_PT087H.grib2 2026-04-30 04:29 1.1M
20260430T00Z_MSC_GDPS_DewPointDepression_IsbL-0700_LatLon0.15_PT087H.grib2 2026-04-30 04:29 1.1M
20260430T00Z_MSC_GDPS_DewPointDepression_IsbL-0750_LatLon0.15_PT087H.grib2 2026-04-30 04:29 1.1M
20260430T00Z_MSC_GDPS_DewPointDepression_IsbL-0800_LatLon0.15_PT087H.grib2 2026-04-30 04:29 1.2M
20260430T00Z_MSC_GDPS_DewPointDepression_IsbL-0850_LatLon0.15_PT087H.grib2 2026-04-30 04:29 1.2M
20260430T00Z_MSC_GDPS_DewPointDepression_IsbL-0875_LatLon0.15_PT087H.grib2 2026-04-30 04:29 1.1M
20260430T00Z_MSC_GDPS_DewPointDepression_IsbL-0900_LatLon0.15_PT087H.grib2 2026-04-30 04:29 1.1M
20260430T00Z_MSC_GDPS_DewPointDepression_IsbL-0925_LatLon0.15_PT087H.grib2 2026-04-30 04:29 1.0M
20260430T00Z_MSC_GDPS_DewPointDepression_IsbL-0950_LatLon0.15_PT087H.grib2 2026-04-30 04:29 1.0M
20260430T00Z_MSC_GDPS_DewPointDepression_IsbL-0970_LatLon0.15_PT087H.grib2 2026-04-30 04:29 1.0M
20260430T00Z_MSC_GDPS_DewPointDepression_IsbL-0985_LatLon0.15_PT087H.grib2 2026-04-30 04:29 1.0M
20260430T00Z_MSC_GDPS_DewPointDepression_IsbL-1000_LatLon0.15_PT087H.grib2 2026-04-30 04:29 1.0M
20260430T00Z_MSC_GDPS_DewPointDepression_IsbL-1015_LatLon0.15_PT087H.grib2 2026-04-30 04:29 918K
20260430T00Z_MSC_GDPS_DewPoint_AGL-2m_LatLon0.15_PT087H.grib2 2026-04-30 04:29 612K
20260430T00Z_MSC_GDPS_DownwardLongwaveRadiationFlux-Accum_Sfc_LatLon0.15_PT087H.grib2 2026-04-30 04:29 703K
20260430T00Z_MSC_GDPS_DownwardShortwaveRadiationFlux-Accum_NTAtm_LatLon0.15_PT087H.grib2 2026-04-30 04:29 272K
20260430T00Z_MSC_GDPS_DownwardShortwaveRadiationFlux-Accum_Sfc_LatLon0.15_PT087H.grib2 2026-04-30 04:29 915K
20260430T00Z_MSC_GDPS_FreezingRain-Accum1h_Sfc_LatLon0.15_PT087H.grib2 2026-04-30 04:29 41K
20260430T00Z_MSC_GDPS_FreezingRain-Accum3h_Sfc_LatLon0.15_PT087H.grib2 2026-04-30 04:29 63K
20260430T00Z_MSC_GDPS_FreezingRain-Accum_Sfc_LatLon0.15_PT087H.grib2 2026-04-30 04:29 346K
20260430T00Z_MSC_GDPS_GeopotentialHeight_IsbL-0001_LatLon0.15_PT087H.grib2 2026-04-30 04:29 368K
20260430T00Z_MSC_GDPS_GeopotentialHeight_IsbL-0005_LatLon0.15_PT087H.grib2 2026-04-30 04:29 488K
20260430T00Z_MSC_GDPS_GeopotentialHeight_IsbL-0010_LatLon0.15_PT087H.grib2 2026-04-30 04:29 480K
20260430T00Z_MSC_GDPS_GeopotentialHeight_IsbL-0020_LatLon0.15_PT087H.grib2 2026-04-30 04:29 411K
20260430T00Z_MSC_GDPS_GeopotentialHeight_IsbL-0030_LatLon0.15_PT087H.grib2 2026-04-30 04:29 569K
20260430T00Z_MSC_GDPS_GeopotentialHeight_IsbL-0050_LatLon0.15_PT087H.grib2 2026-04-30 04:29 569K
20260430T00Z_MSC_GDPS_GeopotentialHeight_IsbL-0100_LatLon0.15_PT087H.grib2 2026-04-30 04:29 610K
20260430T00Z_MSC_GDPS_GeopotentialHeight_IsbL-0150_LatLon0.15_PT087H.grib2 2026-04-30 04:29 626K
20260430T00Z_MSC_GDPS_GeopotentialHeight_IsbL-0175_LatLon0.15_PT087H.grib2 2026-04-30 04:29 630K
20260430T00Z_MSC_GDPS_GeopotentialHeight_IsbL-0200_LatLon0.15_PT087H.grib2 2026-04-30 04:29 635K
20260430T00Z_MSC_GDPS_GeopotentialHeight_IsbL-0225_LatLon0.15_PT087H.grib2 2026-04-30 04:29 639K
20260430T00Z_MSC_GDPS_GeopotentialHeight_IsbL-0250_LatLon0.15_PT087H.grib2 2026-04-30 04:29 644K
20260430T00Z_MSC_GDPS_GeopotentialHeight_IsbL-0275_LatLon0.15_PT087H.grib2 2026-04-30 04:29 642K
20260430T00Z_MSC_GDPS_GeopotentialHeight_IsbL-0300_LatLon0.15_PT087H.grib2 2026-04-30 04:29 641K
20260430T00Z_MSC_GDPS_GeopotentialHeight_IsbL-0350_LatLon0.15_PT087H.grib2 2026-04-30 04:29 630K
20260430T00Z_MSC_GDPS_GeopotentialHeight_IsbL-0400_LatLon0.15_PT087H.grib2 2026-04-30 04:29 622K
20260430T00Z_MSC_GDPS_GeopotentialHeight_IsbL-0450_LatLon0.15_PT087H.grib2 2026-04-30 04:29 614K
20260430T00Z_MSC_GDPS_GeopotentialHeight_IsbL-0500_LatLon0.15_PT087H.grib2 2026-04-30 04:29 605K
20260430T00Z_MSC_GDPS_GeopotentialHeight_IsbL-0550_LatLon0.15_PT087H.grib2 2026-04-30 04:29 527K
20260430T00Z_MSC_GDPS_GeopotentialHeight_IsbL-0600_LatLon0.15_PT087H.grib2 2026-04-30 04:29 525K
20260430T00Z_MSC_GDPS_GeopotentialHeight_IsbL-0650_LatLon0.15_PT087H.grib2 2026-04-30 04:29 692K
20260430T00Z_MSC_GDPS_GeopotentialHeight_IsbL-0700_LatLon0.15_PT087H.grib2 2026-04-30 04:29 693K
20260430T00Z_MSC_GDPS_GeopotentialHeight_IsbL-0750_LatLon0.15_PT087H.grib2 2026-04-30 04:29 692K
20260430T00Z_MSC_GDPS_GeopotentialHeight_IsbL-0800_LatLon0.15_PT087H.grib2 2026-04-30 04:29 707K
20260430T00Z_MSC_GDPS_GeopotentialHeight_IsbL-0850_LatLon0.15_PT087H.grib2 2026-04-30 04:29 713K
20260430T00Z_MSC_GDPS_GeopotentialHeight_IsbL-0875_LatLon0.15_PT087H.grib2 2026-04-30 04:29 720K
20260430T00Z_MSC_GDPS_GeopotentialHeight_IsbL-0900_LatLon0.15_PT087H.grib2 2026-04-30 04:29 728K
20260430T00Z_MSC_GDPS_GeopotentialHeight_IsbL-0925_LatLon0.15_PT087H.grib2 2026-04-30 04:29 736K
20260430T00Z_MSC_GDPS_GeopotentialHeight_IsbL-0950_LatLon0.15_PT087H.grib2 2026-04-30 04:29 740K
20260430T00Z_MSC_GDPS_GeopotentialHeight_IsbL-0970_LatLon0.15_PT087H.grib2 2026-04-30 04:29 754K
20260430T00Z_MSC_GDPS_GeopotentialHeight_IsbL-0985_LatLon0.15_PT087H.grib2 2026-04-30 04:29 770K
20260430T00Z_MSC_GDPS_GeopotentialHeight_IsbL-1000_LatLon0.15_PT087H.grib2 2026-04-30 04:29 791K
20260430T00Z_MSC_GDPS_GeopotentialHeight_IsbL-1015_LatLon0.15_PT087H.grib2 2026-04-30 04:29 813K
20260430T00Z_MSC_GDPS_Humidex_Sfc_LatLon0.15_PT087H.grib2 2026-04-30 04:29 5.3M
20260430T00Z_MSC_GDPS_IcePellets-Accum1h_Sfc_LatLon0.15_PT087H.grib2 2026-04-30 04:29 2.9K
20260430T00Z_MSC_GDPS_IcePellets-Accum3h_Sfc_LatLon0.15_PT087H.grib2 2026-04-30 04:29 5.0K
20260430T00Z_MSC_GDPS_IcePellets-Accum_Sfc_LatLon0.15_PT087H.grib2 2026-04-30 04:29 75K
20260430T00Z_MSC_GDPS_KIndex_Sfc_LatLon0.15_PT087H.grib2 2026-04-30 04:29 6.5M
20260430T00Z_MSC_GDPS_LatentHeatNetFlux_Sfc_LatLon0.15_PT087H.grib2 2026-04-30 04:29 714K
20260430T00Z_MSC_GDPS_LiftedIndex-MU-VT_IsbL-0500_LatLon0.15_PT087H.grib2 2026-04-30 04:29 5.4M
20260430T00Z_MSC_GDPS_NetLongwaveRadiationFlux-Accum_Sfc_LatLon0.15_PT087H.grib2 2026-04-30 04:29 937K
20260430T00Z_MSC_GDPS_NetShortwaveRadiationFlux-Accum_Sfc_LatLon0.15_PT087H.grib2 2026-04-30 04:29 901K
20260430T00Z_MSC_GDPS_O3MixingRatio_Sfc_LatLon0.15_PT087H.grib2 2026-04-30 04:51 1.9M
20260430T00Z_MSC_GDPS_O3_EAtm_LatLon0.15_PT087H.grib2 2026-04-30 04:51 2.4M
20260430T00Z_MSC_GDPS_PlanetaryBoundaryLayerHeight_Sfc_LatLon0.15_PT087H.grib2 2026-04-30 04:29 2.5M
20260430T00Z_MSC_GDPS_Precip-Accum1h_Sfc_LatLon0.15_PT087H.grib2 2026-04-30 04:29 3.2M
20260430T00Z_MSC_GDPS_Precip-Accum3h_Sfc_LatLon0.15_PT087H.grib2 2026-04-30 04:29 3.5M
20260430T00Z_MSC_GDPS_Precip-Accum_Sfc_LatLon0.15_PT087H.grib2 2026-04-30 04:29 5.3M
20260430T00Z_MSC_GDPS_PrecipRate_Sfc_LatLon0.15_PT087H.grib2 2026-04-30 04:29 3.0M
20260430T00Z_MSC_GDPS_PrecipType-Instant_Sfc_LatLon0.15_PT087H.grib2 2026-04-30 04:29 1.6M
20260430T00Z_MSC_GDPS_Pressure_MSL_LatLon0.15_PT087H.grib2 2026-04-30 04:29 826K
20260430T00Z_MSC_GDPS_Pressure_PVU-1.5_LatLon0.15_PT087H.grib2 2026-04-30 04:29 5.8M
20260430T00Z_MSC_GDPS_Pressure_PVU-1_LatLon0.15_PT087H.grib2 2026-04-30 04:29 6.0M
20260430T00Z_MSC_GDPS_Pressure_PVU-2_LatLon0.15_PT087H.grib2 2026-04-30 04:29 5.6M
20260430T00Z_MSC_GDPS_Pressure_Sfc_LatLon0.15_PT087H.grib2 2026-04-30 04:29 1.1M
20260430T00Z_MSC_GDPS_RadiativeTemp_Sfc_LatLon0.15_PT087H.grib2 2026-04-30 04:29 493K
20260430T00Z_MSC_GDPS_Rain-Accum1h_Sfc_LatLon0.15_PT087H.grib2 2026-04-30 04:29 1.7M
20260430T00Z_MSC_GDPS_Rain-Accum3h_Sfc_LatLon0.15_PT087H.grib2 2026-04-30 04:29 1.7M
20260430T00Z_MSC_GDPS_Rain-Accum_Sfc_LatLon0.15_PT087H.grib2 2026-04-30 04:29 4.0M
20260430T00Z_MSC_GDPS_RelativeHumidity_AGL-2m_LatLon0.15_PT087H.grib2 2026-04-30 04:29 1.1M
20260430T00Z_MSC_GDPS_RelativeHumidity_IsbL-0010_LatLon0.15_PT087H.grib2 2026-04-30 04:29 197K
20260430T00Z_MSC_GDPS_RelativeHumidity_IsbL-0020_LatLon0.15_PT087H.grib2 2026-04-30 04:29 166K
20260430T00Z_MSC_GDPS_RelativeHumidity_IsbL-0030_LatLon0.15_PT087H.grib2 2026-04-30 04:29 270K
20260430T00Z_MSC_GDPS_RelativeHumidity_IsbL-0050_LatLon0.15_PT087H.grib2 2026-04-30 04:29 424K
20260430T00Z_MSC_GDPS_RelativeHumidity_IsbL-0100_LatLon0.15_PT087H.grib2 2026-04-30 04:29 507K
20260430T00Z_MSC_GDPS_RelativeHumidity_IsbL-0150_LatLon0.15_PT087H.grib2 2026-04-30 04:29 663K
20260430T00Z_MSC_GDPS_RelativeHumidity_IsbL-0175_LatLon0.15_PT087H.grib2 2026-04-30 04:29 787K
20260430T00Z_MSC_GDPS_RelativeHumidity_IsbL-0200_LatLon0.15_PT087H.grib2 2026-04-30 04:29 709K
20260430T00Z_MSC_GDPS_RelativeHumidity_IsbL-0225_LatLon0.15_PT087H.grib2 2026-04-30 04:29 793K
20260430T00Z_MSC_GDPS_RelativeHumidity_IsbL-0250_LatLon0.15_PT087H.grib2 2026-04-30 04:29 865K
20260430T00Z_MSC_GDPS_RelativeHumidity_IsbL-0275_LatLon0.15_PT087H.grib2 2026-04-30 04:29 886K
20260430T00Z_MSC_GDPS_RelativeHumidity_IsbL-0300_LatLon0.15_PT087H.grib2 2026-04-30 04:29 925K
20260430T00Z_MSC_GDPS_RelativeHumidity_IsbL-0350_LatLon0.15_PT087H.grib2 2026-04-30 04:29 949K
20260430T00Z_MSC_GDPS_RelativeHumidity_IsbL-0400_LatLon0.15_PT087H.grib2 2026-04-30 04:29 1.0M
20260430T00Z_MSC_GDPS_RelativeHumidity_IsbL-0450_LatLon0.15_PT087H.grib2 2026-04-30 04:29 1.0M
20260430T00Z_MSC_GDPS_RelativeHumidity_IsbL-0500_LatLon0.15_PT087H.grib2 2026-04-30 04:29 1.0M
20260430T00Z_MSC_GDPS_RelativeHumidity_IsbL-0550_LatLon0.15_PT087H.grib2 2026-04-30 04:29 1.0M
20260430T00Z_MSC_GDPS_RelativeHumidity_IsbL-0600_LatLon0.15_PT087H.grib2 2026-04-30 04:29 1.0M
20260430T00Z_MSC_GDPS_RelativeHumidity_IsbL-0650_LatLon0.15_PT087H.grib2 2026-04-30 04:29 1.1M
20260430T00Z_MSC_GDPS_RelativeHumidity_IsbL-0700_LatLon0.15_PT087H.grib2 2026-04-30 04:29 1.1M
20260430T00Z_MSC_GDPS_RelativeHumidity_IsbL-0750_LatLon0.15_PT087H.grib2 2026-04-30 04:29 1.2M
20260430T00Z_MSC_GDPS_RelativeHumidity_IsbL-0800_LatLon0.15_PT087H.grib2 2026-04-30 04:29 1.3M
20260430T00Z_MSC_GDPS_RelativeHumidity_IsbL-0850_LatLon0.15_PT087H.grib2 2026-04-30 04:29 1.3M
20260430T00Z_MSC_GDPS_RelativeHumidity_IsbL-0875_LatLon0.15_PT087H.grib2 2026-04-30 04:29 1.3M
20260430T00Z_MSC_GDPS_RelativeHumidity_IsbL-0900_LatLon0.15_PT087H.grib2 2026-04-30 04:29 1.2M
20260430T00Z_MSC_GDPS_RelativeHumidity_IsbL-0925_LatLon0.15_PT087H.grib2 2026-04-30 04:29 1.2M
20260430T00Z_MSC_GDPS_RelativeHumidity_IsbL-0950_LatLon0.15_PT087H.grib2 2026-04-30 04:29 1.2M
20260430T00Z_MSC_GDPS_RelativeHumidity_IsbL-0970_LatLon0.15_PT087H.grib2 2026-04-30 04:29 1.2M
20260430T00Z_MSC_GDPS_RelativeHumidity_IsbL-0985_LatLon0.15_PT087H.grib2 2026-04-30 04:29 1.1M
20260430T00Z_MSC_GDPS_RelativeHumidity_IsbL-1000_LatLon0.15_PT087H.grib2 2026-04-30 04:29 1.2M
20260430T00Z_MSC_GDPS_RelativeHumidity_IsbL-1015_LatLon0.15_PT087H.grib2 2026-04-30 04:29 1.0M
20260430T00Z_MSC_GDPS_RelativeVorticity_IsbL-0200_LatLon0.15_PT087H.grib2 2026-04-30 04:29 1.5M
20260430T00Z_MSC_GDPS_RelativeVorticity_IsbL-0250_LatLon0.15_PT087H.grib2 2026-04-30 04:29 1.6M
20260430T00Z_MSC_GDPS_RelativeVorticity_IsbL-0500_LatLon0.15_PT087H.grib2 2026-04-30 04:29 1.5M
20260430T00Z_MSC_GDPS_RelativeVorticity_IsbL-0700_LatLon0.15_PT087H.grib2 2026-04-30 04:29 1.6M
20260430T00Z_MSC_GDPS_RelativeVorticity_IsbL-0850_LatLon0.15_PT087H.grib2 2026-04-30 04:29 1.6M
20260430T00Z_MSC_GDPS_Runoff-Accum_Sfc_LatLon0.15_PT087H.grib2 2026-04-30 04:29 123K
20260430T00Z_MSC_GDPS_SensibleHeatNetFlux_Sfc_LatLon0.15_PT087H.grib2 2026-04-30 04:29 650K
20260430T00Z_MSC_GDPS_ShowalterIndex_IsbL-0500_LatLon0.15_PT087H.grib2 2026-04-30 04:29 6.2M
20260430T00Z_MSC_GDPS_Snow-Accum1h_Sfc_LatLon0.15_PT087H.grib2 2026-04-30 04:29 1.1M
20260430T00Z_MSC_GDPS_Snow-Accum3h_Sfc_LatLon0.15_PT087H.grib2 2026-04-30 04:29 1.2M
20260430T00Z_MSC_GDPS_Snow-Accum_Sfc_LatLon0.15_PT087H.grib2 2026-04-30 04:29 2.1M
20260430T00Z_MSC_GDPS_SnowDensity_Sfc_LatLon0.15_PT087H.grib2 2026-04-30 04:29 267K
20260430T00Z_MSC_GDPS_SnowDepth_Sfc_LatLon0.15_PT087H.grib2 2026-04-30 04:29 1.7M
20260430T00Z_MSC_GDPS_SoilTemp_DBS-0to10cm_LatLon0.15_PT087H.grib2 2026-04-30 04:29 511K
20260430T00Z_MSC_GDPS_SoilTemp_Sfc_LatLon0.15_PT087H.grib2 2026-04-30 04:29 583K
20260430T00Z_MSC_GDPS_SoilVolumetricIceContent_Sfc_LatLon0.15_PT087H.grib2 2026-04-30 04:29 198K
20260430T00Z_MSC_GDPS_SoilVolumetricWaterContent_DBS-0to10cm_LatLon0.15_PT087H.grib2 2026-04-30 04:29 588K
20260430T00Z_MSC_GDPS_SoilVolumetricWaterContent_DBS-0to1cm_LatLon0.15_PT087H.grib2 2026-04-30 04:29 652K
20260430T00Z_MSC_GDPS_SpecificHumidity_AGL-120m_LatLon0.15_PT087H.grib2 2026-04-30 04:29 1.1M
20260430T00Z_MSC_GDPS_SpecificHumidity_AGL-2m_LatLon0.15_PT087H.grib2 2026-04-30 04:29 1.2M
20260430T00Z_MSC_GDPS_SpecificHumidity_AGL-40m_LatLon0.15_PT087H.grib2 2026-04-30 04:29 1.1M
20260430T00Z_MSC_GDPS_SpecificHumidity_AGL-80m_LatLon0.15_PT087H.grib2 2026-04-30 04:29 1.1M
20260430T00Z_MSC_GDPS_SpecificHumidity_IsbL-0001_LatLon0.15_PT087H.grib2 2026-04-30 04:29 1.3M
20260430T00Z_MSC_GDPS_SpecificHumidity_IsbL-0005_LatLon0.15_PT087H.grib2 2026-04-30 04:29 1.2M
20260430T00Z_MSC_GDPS_SpecificHumidity_IsbL-0010_LatLon0.15_PT087H.grib2 2026-04-30 04:29 1.3M
20260430T00Z_MSC_GDPS_SpecificHumidity_IsbL-0020_LatLon0.15_PT087H.grib2 2026-04-30 04:29 1.3M
20260430T00Z_MSC_GDPS_SpecificHumidity_IsbL-0030_LatLon0.15_PT087H.grib2 2026-04-30 04:29 1.3M
20260430T00Z_MSC_GDPS_SpecificHumidity_IsbL-0050_LatLon0.15_PT087H.grib2 2026-04-30 04:29 1.6M
20260430T00Z_MSC_GDPS_SpecificHumidity_IsbL-0100_LatLon0.15_PT087H.grib2 2026-04-30 04:29 1.3M
20260430T00Z_MSC_GDPS_SpecificHumidity_IsbL-0150_LatLon0.15_PT087H.grib2 2026-04-30 04:29 1.3M
20260430T00Z_MSC_GDPS_SpecificHumidity_IsbL-0175_LatLon0.15_PT087H.grib2 2026-04-30 04:29 1.3M
20260430T00Z_MSC_GDPS_SpecificHumidity_IsbL-0200_LatLon0.15_PT087H.grib2 2026-04-30 04:29 1.3M
20260430T00Z_MSC_GDPS_SpecificHumidity_IsbL-0225_LatLon0.15_PT087H.grib2 2026-04-30 04:29 1.3M
20260430T00Z_MSC_GDPS_SpecificHumidity_IsbL-0250_LatLon0.15_PT087H.grib2 2026-04-30 04:29 1.4M
20260430T00Z_MSC_GDPS_SpecificHumidity_IsbL-0275_LatLon0.15_PT087H.grib2 2026-04-30 04:29 1.3M
20260430T00Z_MSC_GDPS_SpecificHumidity_IsbL-0300_LatLon0.15_PT087H.grib2 2026-04-30 04:29 1.2M
20260430T00Z_MSC_GDPS_SpecificHumidity_IsbL-0350_LatLon0.15_PT087H.grib2 2026-04-30 04:29 1.2M
20260430T00Z_MSC_GDPS_SpecificHumidity_IsbL-0400_LatLon0.15_PT087H.grib2 2026-04-30 04:29 1.5M
20260430T00Z_MSC_GDPS_SpecificHumidity_IsbL-0450_LatLon0.15_PT087H.grib2 2026-04-30 04:29 1.6M
20260430T00Z_MSC_GDPS_SpecificHumidity_IsbL-0500_LatLon0.15_PT087H.grib2 2026-04-30 04:29 1.4M
20260430T00Z_MSC_GDPS_SpecificHumidity_IsbL-0550_LatLon0.15_PT087H.grib2 2026-04-30 04:29 1.6M
20260430T00Z_MSC_GDPS_SpecificHumidity_IsbL-0600_LatLon0.15_PT087H.grib2 2026-04-30 04:29 1.7M
20260430T00Z_MSC_GDPS_SpecificHumidity_IsbL-0650_LatLon0.15_PT087H.grib2 2026-04-30 04:29 1.5M
20260430T00Z_MSC_GDPS_SpecificHumidity_IsbL-0700_LatLon0.15_PT087H.grib2 2026-04-30 04:29 1.6M
20260430T00Z_MSC_GDPS_SpecificHumidity_IsbL-0750_LatLon0.15_PT087H.grib2 2026-04-30 04:29 1.7M
20260430T00Z_MSC_GDPS_SpecificHumidity_IsbL-0800_LatLon0.15_PT087H.grib2 2026-04-30 04:29 1.9M
20260430T00Z_MSC_GDPS_SpecificHumidity_IsbL-0850_LatLon0.15_PT087H.grib2 2026-04-30 04:29 1.9M
20260430T00Z_MSC_GDPS_SpecificHumidity_IsbL-0875_LatLon0.15_PT087H.grib2 2026-04-30 04:29 1.9M
20260430T00Z_MSC_GDPS_SpecificHumidity_IsbL-0900_LatLon0.15_PT087H.grib2 2026-04-30 04:29 1.6M
20260430T00Z_MSC_GDPS_SpecificHumidity_IsbL-0925_LatLon0.15_PT087H.grib2 2026-04-30 04:29 1.6M
20260430T00Z_MSC_GDPS_SpecificHumidity_IsbL-0950_LatLon0.15_PT087H.grib2 2026-04-30 04:29 1.6M
20260430T00Z_MSC_GDPS_SpecificHumidity_IsbL-0970_LatLon0.15_PT087H.grib2 2026-04-30 04:29 1.5M
20260430T00Z_MSC_GDPS_SpecificHumidity_IsbL-0985_LatLon0.15_PT087H.grib2 2026-04-30 04:29 1.5M
20260430T00Z_MSC_GDPS_SpecificHumidity_IsbL-1000_LatLon0.15_PT087H.grib2 2026-04-30 04:29 1.5M
20260430T00Z_MSC_GDPS_SpecificHumidity_IsbL-1015_LatLon0.15_PT087H.grib2 2026-04-30 04:29 1.5M
20260430T00Z_MSC_GDPS_SpecificHumidity_Sfc_LatLon0.15_PT087H.grib2 2026-04-30 04:29 676K
20260430T00Z_MSC_GDPS_Thickness_IsbL-0850to0700_LatLon0.15_PT087H.grib2 2026-04-30 04:29 471K
20260430T00Z_MSC_GDPS_Thickness_IsbL-1000to0500_LatLon0.15_PT087H.grib2 2026-04-30 04:29 371K
20260430T00Z_MSC_GDPS_Thickness_IsbL-1000to0850_LatLon0.15_PT087H.grib2 2026-04-30 04:29 491K
20260430T00Z_MSC_GDPS_TotalCloudCover_Sfc_LatLon0.15_PT087H.grib2 2026-04-30 04:29 820K
20260430T00Z_MSC_GDPS_TotalTotalsIndex_Sfc_LatLon0.15_PT087H.grib2 2026-04-30 04:29 6.2M
20260430T00Z_MSC_GDPS_UVIndex-ClearSky_Sfc_LatLon0.15_PT087H.grib2 2026-04-30 04:51 1.0M
20260430T00Z_MSC_GDPS_UVIndex_Sfc_LatLon0.15_PT087H.grib2 2026-04-30 04:51 1.5M
20260430T00Z_MSC_GDPS_UpwardLongwaveRadiationFlux_NTAtm_LatLon0.15_PT087H.grib2 2026-04-30 04:29 843K
20260430T00Z_MSC_GDPS_VerticalVelocity_IsbL-0200_LatLon0.15_PT087H.grib2 2026-04-30 04:29 1.2M
20260430T00Z_MSC_GDPS_VerticalVelocity_IsbL-0250_LatLon0.15_PT087H.grib2 2026-04-30 04:29 1.0M
20260430T00Z_MSC_GDPS_VerticalVelocity_IsbL-0500_LatLon0.15_PT087H.grib2 2026-04-30 04:29 1.0M
20260430T00Z_MSC_GDPS_VerticalVelocity_IsbL-0600_LatLon0.15_PT087H.grib2 2026-04-30 04:29 1.1M
20260430T00Z_MSC_GDPS_VerticalVelocity_IsbL-0700_LatLon0.15_PT087H.grib2 2026-04-30 04:29 1.2M
20260430T00Z_MSC_GDPS_VerticalVelocity_IsbL-0850_LatLon0.15_PT087H.grib2 2026-04-30 04:29 1.6M
20260430T00Z_MSC_GDPS_WindChill_Sfc_LatLon0.15_PT087H.grib2 2026-04-30 04:29 5.3M
20260430T00Z_MSC_GDPS_WindDir_AGL-10m_LatLon0.15_PT087H.grib2 2026-04-30 04:29 1.3M
20260430T00Z_MSC_GDPS_WindDir_AGL-120m_LatLon0.15_PT087H.grib2 2026-04-30 04:29 1.3M
20260430T00Z_MSC_GDPS_WindDir_AGL-40m_LatLon0.15_PT087H.grib2 2026-04-30 04:29 1.4M
20260430T00Z_MSC_GDPS_WindDir_AGL-80m_LatLon0.15_PT087H.grib2 2026-04-30 04:29 1.4M
20260430T00Z_MSC_GDPS_WindDir_IsbL-0001_LatLon0.15_PT087H.grib2 2026-04-30 04:29 676K
20260430T00Z_MSC_GDPS_WindDir_IsbL-0005_LatLon0.15_PT087H.grib2 2026-04-30 04:29 817K
20260430T00Z_MSC_GDPS_WindDir_IsbL-0010_LatLon0.15_PT087H.grib2 2026-04-30 04:29 828K
20260430T00Z_MSC_GDPS_WindDir_IsbL-0020_LatLon0.15_PT087H.grib2 2026-04-30 04:29 964K
20260430T00Z_MSC_GDPS_WindDir_IsbL-0030_LatLon0.15_PT087H.grib2 2026-04-30 04:29 946K
20260430T00Z_MSC_GDPS_WindDir_IsbL-0050_LatLon0.15_PT087H.grib2 2026-04-30 04:29 952K
20260430T00Z_MSC_GDPS_WindDir_IsbL-0100_LatLon0.15_PT087H.grib2 2026-04-30 04:29 1.0M
20260430T00Z_MSC_GDPS_WindDir_IsbL-0150_LatLon0.15_PT087H.grib2 2026-04-30 04:29 1.0M
20260430T00Z_MSC_GDPS_WindDir_IsbL-0175_LatLon0.15_PT087H.grib2 2026-04-30 04:29 1.1M
20260430T00Z_MSC_GDPS_WindDir_IsbL-0200_LatLon0.15_PT087H.grib2 2026-04-30 04:29 1.1M
20260430T00Z_MSC_GDPS_WindDir_IsbL-0225_LatLon0.15_PT087H.grib2 2026-04-30 04:29 1.1M
20260430T00Z_MSC_GDPS_WindDir_IsbL-0250_LatLon0.15_PT087H.grib2 2026-04-30 04:29 1.1M
20260430T00Z_MSC_GDPS_WindDir_IsbL-0275_LatLon0.15_PT087H.grib2 2026-04-30 04:29 1.2M
20260430T00Z_MSC_GDPS_WindDir_IsbL-0300_LatLon0.15_PT087H.grib2 2026-04-30 04:29 1.2M
20260430T00Z_MSC_GDPS_WindDir_IsbL-0350_LatLon0.15_PT087H.grib2 2026-04-30 04:29 1.2M
20260430T00Z_MSC_GDPS_WindDir_IsbL-0400_LatLon0.15_PT087H.grib2 2026-04-30 04:29 1.3M
20260430T00Z_MSC_GDPS_WindDir_IsbL-0450_LatLon0.15_PT087H.grib2 2026-04-30 04:29 1.3M
20260430T00Z_MSC_GDPS_WindDir_IsbL-0500_LatLon0.15_PT087H.grib2 2026-04-30 04:29 1.3M
20260430T00Z_MSC_GDPS_WindDir_IsbL-0550_LatLon0.15_PT087H.grib2 2026-04-30 04:29 1.4M
20260430T00Z_MSC_GDPS_WindDir_IsbL-0600_LatLon0.15_PT087H.grib2 2026-04-30 04:29 1.4M
20260430T00Z_MSC_GDPS_WindDir_IsbL-0650_LatLon0.15_PT087H.grib2 2026-04-30 04:29 1.5M
20260430T00Z_MSC_GDPS_WindDir_IsbL-0700_LatLon0.15_PT087H.grib2 2026-04-30 04:29 1.6M
20260430T00Z_MSC_GDPS_WindDir_IsbL-0750_LatLon0.15_PT087H.grib2 2026-04-30 04:29 1.7M
20260430T00Z_MSC_GDPS_WindDir_IsbL-0800_LatLon0.15_PT087H.grib2 2026-04-30 04:29 1.8M
20260430T00Z_MSC_GDPS_WindDir_IsbL-0850_LatLon0.15_PT087H.grib2 2026-04-30 04:29 1.9M
20260430T00Z_MSC_GDPS_WindDir_IsbL-0875_LatLon0.15_PT087H.grib2 2026-04-30 04:29 1.9M
20260430T00Z_MSC_GDPS_WindDir_IsbL-0900_LatLon0.15_PT087H.grib2 2026-04-30 04:29 2.0M
20260430T00Z_MSC_GDPS_WindDir_IsbL-0925_LatLon0.15_PT087H.grib2 2026-04-30 04:29 2.0M
20260430T00Z_MSC_GDPS_WindDir_IsbL-0950_LatLon0.15_PT087H.grib2 2026-04-30 04:29 2.0M
20260430T00Z_MSC_GDPS_WindDir_IsbL-0970_LatLon0.15_PT087H.grib2 2026-04-30 04:29 2.0M
20260430T00Z_MSC_GDPS_WindDir_IsbL-0985_LatLon0.15_PT087H.grib2 2026-04-30 04:29 2.0M
20260430T00Z_MSC_GDPS_WindDir_IsbL-1000_LatLon0.15_PT087H.grib2 2026-04-30 04:29 2.0M
20260430T00Z_MSC_GDPS_WindDir_IsbL-1015_LatLon0.15_PT087H.grib2 2026-04-30 04:29 2.0M
20260430T00Z_MSC_GDPS_WindGust-Max_AGL-10m_LatLon0.15_PT087H.grib2 2026-04-30 04:29 2.2M
20260430T00Z_MSC_GDPS_WindGust-Min_AGL-10m_LatLon0.15_PT087H.grib2 2026-04-30 04:29 2.1M
20260430T00Z_MSC_GDPS_WindGust_AGL-10m_LatLon0.15_PT087H.grib2 2026-04-30 04:29 2.1M
20260430T00Z_MSC_GDPS_WindSpeed_AGL-10m_LatLon0.15_PT087H.grib2 2026-04-30 04:29 1.1M
20260430T00Z_MSC_GDPS_WindSpeed_AGL-120m_LatLon0.15_PT087H.grib2 2026-04-30 04:29 1.2M
20260430T00Z_MSC_GDPS_WindSpeed_AGL-40m_LatLon0.15_PT087H.grib2 2026-04-30 04:29 1.2M
20260430T00Z_MSC_GDPS_WindSpeed_AGL-80m_LatLon0.15_PT087H.grib2 2026-04-30 04:29 1.2M
20260430T00Z_MSC_GDPS_WindSpeed_IsbL-0001_LatLon0.15_PT087H.grib2 2026-04-30 04:29 643K
20260430T00Z_MSC_GDPS_WindSpeed_IsbL-0005_LatLon0.15_PT087H.grib2 2026-04-30 04:29 693K
20260430T00Z_MSC_GDPS_WindSpeed_IsbL-0010_LatLon0.15_PT087H.grib2 2026-04-30 04:29 625K
20260430T00Z_MSC_GDPS_WindSpeed_IsbL-0020_LatLon0.15_PT087H.grib2 2026-04-30 04:29 668K
20260430T00Z_MSC_GDPS_WindSpeed_IsbL-0030_LatLon0.15_PT087H.grib2 2026-04-30 04:29 867K
20260430T00Z_MSC_GDPS_WindSpeed_IsbL-0050_LatLon0.15_PT087H.grib2 2026-04-30 04:29 909K
20260430T00Z_MSC_GDPS_WindSpeed_IsbL-0100_LatLon0.15_PT087H.grib2 2026-04-30 04:29 1.1M
20260430T00Z_MSC_GDPS_WindSpeed_IsbL-0150_LatLon0.15_PT087H.grib2 2026-04-30 04:29 951K
20260430T00Z_MSC_GDPS_WindSpeed_IsbL-0175_LatLon0.15_PT087H.grib2 2026-04-30 04:29 1.0M
20260430T00Z_MSC_GDPS_WindSpeed_IsbL-0200_LatLon0.15_PT087H.grib2 2026-04-30 04:29 1.1M
20260430T00Z_MSC_GDPS_WindSpeed_IsbL-0225_LatLon0.15_PT087H.grib2 2026-04-30 04:29 1.1M
20260430T00Z_MSC_GDPS_WindSpeed_IsbL-0250_LatLon0.15_PT087H.grib2 2026-04-30 04:29 1.1M
20260430T00Z_MSC_GDPS_WindSpeed_IsbL-0275_LatLon0.15_PT087H.grib2 2026-04-30 04:29 1.1M
20260430T00Z_MSC_GDPS_WindSpeed_IsbL-0300_LatLon0.15_PT087H.grib2 2026-04-30 04:29 1.1M
20260430T00Z_MSC_GDPS_WindSpeed_IsbL-0350_LatLon0.15_PT087H.grib2 2026-04-30 04:29 1.1M
20260430T00Z_MSC_GDPS_WindSpeed_IsbL-0400_LatLon0.15_PT087H.grib2 2026-04-30 04:29 1.1M
20260430T00Z_MSC_GDPS_WindSpeed_IsbL-0450_LatLon0.15_PT087H.grib2 2026-04-30 04:29 1.1M
20260430T00Z_MSC_GDPS_WindSpeed_IsbL-0500_LatLon0.15_PT087H.grib2 2026-04-30 04:29 1.1M
20260430T00Z_MSC_GDPS_WindSpeed_IsbL-0550_LatLon0.15_PT087H.grib2 2026-04-30 04:29 1.1M
20260430T00Z_MSC_GDPS_WindSpeed_IsbL-0600_LatLon0.15_PT087H.grib2 2026-04-30 04:29 1.4M
20260430T00Z_MSC_GDPS_WindSpeed_IsbL-0650_LatLon0.15_PT087H.grib2 2026-04-30 04:29 1.5M
20260430T00Z_MSC_GDPS_WindSpeed_IsbL-0700_LatLon0.15_PT087H.grib2 2026-04-30 04:29 1.5M
20260430T00Z_MSC_GDPS_WindSpeed_IsbL-0750_LatLon0.15_PT087H.grib2 2026-04-30 04:29 1.6M
20260430T00Z_MSC_GDPS_WindSpeed_IsbL-0800_LatLon0.15_PT087H.grib2 2026-04-30 04:29 1.4M
20260430T00Z_MSC_GDPS_WindSpeed_IsbL-0850_LatLon0.15_PT087H.grib2 2026-04-30 04:29 1.4M
20260430T00Z_MSC_GDPS_WindSpeed_IsbL-0875_LatLon0.15_PT087H.grib2 2026-04-30 04:29 1.8M
20260430T00Z_MSC_GDPS_WindSpeed_IsbL-0900_LatLon0.15_PT087H.grib2 2026-04-30 04:29 1.8M
20260430T00Z_MSC_GDPS_WindSpeed_IsbL-0925_LatLon0.15_PT087H.grib2 2026-04-30 04:29 1.8M
20260430T00Z_MSC_GDPS_WindSpeed_IsbL-0950_LatLon0.15_PT087H.grib2 2026-04-30 04:29 1.9M
20260430T00Z_MSC_GDPS_WindSpeed_IsbL-0970_LatLon0.15_PT087H.grib2 2026-04-30 04:29 1.9M
20260430T00Z_MSC_GDPS_WindSpeed_IsbL-0985_LatLon0.15_PT087H.grib2 2026-04-30 04:29 1.9M
20260430T00Z_MSC_GDPS_WindSpeed_IsbL-1000_LatLon0.15_PT087H.grib2 2026-04-30 04:29 1.8M
20260430T00Z_MSC_GDPS_WindSpeed_IsbL-1015_LatLon0.15_PT087H.grib2 2026-04-30 04:29 1.8M
20260430T00Z_MSC_GDPS_WindU_AGL-10m_LatLon0.15_PT087H.grib2 2026-04-30 04:29 1.3M
20260430T00Z_MSC_GDPS_WindU_AGL-120m_LatLon0.15_PT087H.grib2 2026-04-30 04:29 1.0M
20260430T00Z_MSC_GDPS_WindU_AGL-40m_LatLon0.15_PT087H.grib2 2026-04-30 04:29 970K
20260430T00Z_MSC_GDPS_WindU_AGL-80m_LatLon0.15_PT087H.grib2 2026-04-30 04:29 1.0M
20260430T00Z_MSC_GDPS_WindU_IsbL-0001_LatLon0.15_PT087H.grib2 2026-04-30 04:29 497K
20260430T00Z_MSC_GDPS_WindU_IsbL-0005_LatLon0.15_PT087H.grib2 2026-04-30 04:29 691K
20260430T00Z_MSC_GDPS_WindU_IsbL-0010_LatLon0.15_PT087H.grib2 2026-04-30 04:29 700K
20260430T00Z_MSC_GDPS_WindU_IsbL-0020_LatLon0.15_PT087H.grib2 2026-04-30 04:29 732K
20260430T00Z_MSC_GDPS_WindU_IsbL-0030_LatLon0.15_PT087H.grib2 2026-04-30 04:29 740K
20260430T00Z_MSC_GDPS_WindU_IsbL-0050_LatLon0.15_PT087H.grib2 2026-04-30 04:29 767K
20260430T00Z_MSC_GDPS_WindU_IsbL-0100_LatLon0.15_PT087H.grib2 2026-04-30 04:29 923K
20260430T00Z_MSC_GDPS_WindU_IsbL-0150_LatLon0.15_PT087H.grib2 2026-04-30 04:29 1.0M
20260430T00Z_MSC_GDPS_WindU_IsbL-0175_LatLon0.15_PT087H.grib2 2026-04-30 04:29 1.0M
20260430T00Z_MSC_GDPS_WindU_IsbL-0200_LatLon0.15_PT087H.grib2 2026-04-30 04:29 842K
20260430T00Z_MSC_GDPS_WindU_IsbL-0225_LatLon0.15_PT087H.grib2 2026-04-30 04:29 853K
20260430T00Z_MSC_GDPS_WindU_IsbL-0250_LatLon0.15_PT087H.grib2 2026-04-30 04:29 859K
20260430T00Z_MSC_GDPS_WindU_IsbL-0275_LatLon0.15_PT087H.grib2 2026-04-30 04:29 889K
20260430T00Z_MSC_GDPS_WindU_IsbL-0300_LatLon0.15_PT087H.grib2 2026-04-30 04:29 881K
20260430T00Z_MSC_GDPS_WindU_IsbL-0350_LatLon0.15_PT087H.grib2 2026-04-30 04:29 892K
20260430T00Z_MSC_GDPS_WindU_IsbL-0400_LatLon0.15_PT087H.grib2 2026-04-30 04:29 1.1M
20260430T00Z_MSC_GDPS_WindU_IsbL-0450_LatLon0.15_PT087H.grib2 2026-04-30 04:29 1.1M
20260430T00Z_MSC_GDPS_WindU_IsbL-0500_LatLon0.15_PT087H.grib2 2026-04-30 04:29 1.1M
20260430T00Z_MSC_GDPS_WindU_IsbL-0550_LatLon0.15_PT087H.grib2 2026-04-30 04:29 1.1M
20260430T00Z_MSC_GDPS_WindU_IsbL-0600_LatLon0.15_PT087H.grib2 2026-04-30 04:29 1.2M
20260430T00Z_MSC_GDPS_WindU_IsbL-0650_LatLon0.15_PT087H.grib2 2026-04-30 04:29 1.2M
20260430T00Z_MSC_GDPS_WindU_IsbL-0700_LatLon0.15_PT087H.grib2 2026-04-30 04:29 1.2M
20260430T00Z_MSC_GDPS_WindU_IsbL-0750_LatLon0.15_PT087H.grib2 2026-04-30 04:29 1.3M
20260430T00Z_MSC_GDPS_WindU_IsbL-0800_LatLon0.15_PT087H.grib2 2026-04-30 04:29 1.4M
20260430T00Z_MSC_GDPS_WindU_IsbL-0850_LatLon0.15_PT087H.grib2 2026-04-30 04:29 1.4M
20260430T00Z_MSC_GDPS_WindU_IsbL-0875_LatLon0.15_PT087H.grib2 2026-04-30 04:29 1.5M
20260430T00Z_MSC_GDPS_WindU_IsbL-0900_LatLon0.15_PT087H.grib2 2026-04-30 04:29 1.5M
20260430T00Z_MSC_GDPS_WindU_IsbL-0925_LatLon0.15_PT087H.grib2 2026-04-30 04:29 1.5M
20260430T00Z_MSC_GDPS_WindU_IsbL-0950_LatLon0.15_PT087H.grib2 2026-04-30 04:29 1.4M
20260430T00Z_MSC_GDPS_WindU_IsbL-0970_LatLon0.15_PT087H.grib2 2026-04-30 04:29 1.4M
20260430T00Z_MSC_GDPS_WindU_IsbL-0985_LatLon0.15_PT087H.grib2 2026-04-30 04:29 1.4M
20260430T00Z_MSC_GDPS_WindU_IsbL-1000_LatLon0.15_PT087H.grib2 2026-04-30 04:29 1.4M
20260430T00Z_MSC_GDPS_WindU_IsbL-1015_LatLon0.15_PT087H.grib2 2026-04-30 04:29 1.4M
20260430T00Z_MSC_GDPS_WindV_AGL-10m_LatLon0.15_PT087H.grib2 2026-04-30 04:29 1.3M
20260430T00Z_MSC_GDPS_WindV_AGL-120m_LatLon0.15_PT087H.grib2 2026-04-30 04:29 1.0M
20260430T00Z_MSC_GDPS_WindV_AGL-40m_LatLon0.15_PT087H.grib2 2026-04-30 04:29 962K
20260430T00Z_MSC_GDPS_WindV_AGL-80m_LatLon0.15_PT087H.grib2 2026-04-30 04:29 968K
20260430T00Z_MSC_GDPS_WindV_IsbL-0001_LatLon0.15_PT087H.grib2 2026-04-30 04:29 777K
20260430T00Z_MSC_GDPS_WindV_IsbL-0005_LatLon0.15_PT087H.grib2 2026-04-30 04:29 856K
20260430T00Z_MSC_GDPS_WindV_IsbL-0010_LatLon0.15_PT087H.grib2 2026-04-30 04:29 883K
20260430T00Z_MSC_GDPS_WindV_IsbL-0020_LatLon0.15_PT087H.grib2 2026-04-30 04:29 935K
20260430T00Z_MSC_GDPS_WindV_IsbL-0030_LatLon0.15_PT087H.grib2 2026-04-30 04:29 938K
20260430T00Z_MSC_GDPS_WindV_IsbL-0050_LatLon0.15_PT087H.grib2 2026-04-30 04:29 1.0M
20260430T00Z_MSC_GDPS_WindV_IsbL-0100_LatLon0.15_PT087H.grib2 2026-04-30 04:29 859K
20260430T00Z_MSC_GDPS_WindV_IsbL-0150_LatLon0.15_PT087H.grib2 2026-04-30 04:29 1.0M
20260430T00Z_MSC_GDPS_WindV_IsbL-0175_LatLon0.15_PT087H.grib2 2026-04-30 04:29 1.0M
20260430T00Z_MSC_GDPS_WindV_IsbL-0200_LatLon0.15_PT087H.grib2 2026-04-30 04:29 841K
20260430T00Z_MSC_GDPS_WindV_IsbL-0225_LatLon0.15_PT087H.grib2 2026-04-30 04:29 851K
20260430T00Z_MSC_GDPS_WindV_IsbL-0250_LatLon0.15_PT087H.grib2 2026-04-30 04:29 851K
20260430T00Z_MSC_GDPS_WindV_IsbL-0275_LatLon0.15_PT087H.grib2 2026-04-30 04:29 936K
20260430T00Z_MSC_GDPS_WindV_IsbL-0300_LatLon0.15_PT087H.grib2 2026-04-30 04:29 927K
20260430T00Z_MSC_GDPS_WindV_IsbL-0350_LatLon0.15_PT087H.grib2 2026-04-30 04:29 936K
20260430T00Z_MSC_GDPS_WindV_IsbL-0400_LatLon0.15_PT087H.grib2 2026-04-30 04:29 880K
20260430T00Z_MSC_GDPS_WindV_IsbL-0450_LatLon0.15_PT087H.grib2 2026-04-30 04:29 883K
20260430T00Z_MSC_GDPS_WindV_IsbL-0500_LatLon0.15_PT087H.grib2 2026-04-30 04:29 1.1M
20260430T00Z_MSC_GDPS_WindV_IsbL-0550_LatLon0.15_PT087H.grib2 2026-04-30 04:29 1.1M
20260430T00Z_MSC_GDPS_WindV_IsbL-0600_LatLon0.15_PT087H.grib2 2026-04-30 04:29 1.1M
20260430T00Z_MSC_GDPS_WindV_IsbL-0650_LatLon0.15_PT087H.grib2 2026-04-30 04:29 1.2M
20260430T00Z_MSC_GDPS_WindV_IsbL-0700_LatLon0.15_PT087H.grib2 2026-04-30 04:29 1.2M
20260430T00Z_MSC_GDPS_WindV_IsbL-0750_LatLon0.15_PT087H.grib2 2026-04-30 04:29 1.3M
20260430T00Z_MSC_GDPS_WindV_IsbL-0800_LatLon0.15_PT087H.grib2 2026-04-30 04:29 1.3M
20260430T00Z_MSC_GDPS_WindV_IsbL-0850_LatLon0.15_PT087H.grib2 2026-04-30 04:29 1.4M
20260430T00Z_MSC_GDPS_WindV_IsbL-0875_LatLon0.15_PT087H.grib2 2026-04-30 04:29 1.4M
20260430T00Z_MSC_GDPS_WindV_IsbL-0900_LatLon0.15_PT087H.grib2 2026-04-30 04:29 1.4M
20260430T00Z_MSC_GDPS_WindV_IsbL-0925_LatLon0.15_PT087H.grib2 2026-04-30 04:29 1.4M
20260430T00Z_MSC_GDPS_WindV_IsbL-0950_LatLon0.15_PT087H.grib2 2026-04-30 04:29 1.4M
20260430T00Z_MSC_GDPS_WindV_IsbL-0970_LatLon0.15_PT087H.grib2 2026-04-30 04:29 1.4M
20260430T00Z_MSC_GDPS_WindV_IsbL-0985_LatLon0.15_PT087H.grib2 2026-04-30 04:29 1.4M
20260430T00Z_MSC_GDPS_WindV_IsbL-1000_LatLon0.15_PT087H.grib2 2026-04-30 04:29 1.4M
20260430T00Z_MSC_GDPS_WindV_IsbL-1015_LatLon0.15_PT087H.grib2 2026-04-30 04:29 1.3M